Showing default

COSMOS 2092, 20737

Orbit data source: Space-Track

COSMOS 2092, 20737 is a payload satellite owned by UNKS (CIS) in LEO that was launched on Wed, 08 Aug 1990 UTC via a TSIKLON-3 launch vehicle from the Plesetsk Missile And Space Complex (PKMTR). Payload-class satellites include a variety of spacecraft equipped with specific instruments for various scientific and technological missions. These include communications satellites like Starlink; space stations such as the ISS; scientific satellites like the Hubble; Earth observation satellites from companies like Planet Labs, Umbra, and HawkEye 360; GPS; miniature CubeSats for education and research; and military/defense satellites.

Loading next visibility...
Identifier
20737, 1990-070C
Orbit
LEO
Country
Flag of CISCIS
Related business
Manufacturer
NPO PM
Mission
Defense Communications
Bus & Motor
STRELA-3, Unknown motor
Mass
225 kg wet, 225 kg dry
Launch date (UTC)
1990-08-08 (35 years ago)
Launch vehicle
TSIKLON-3
Launch site
Plesetsk Missile And Space Complex (PKMTR)
Object type
Payload
Rocket body
Debris
Shape & HBR
Cyl, 0.8 m
Radar Cross Section
1.257 m², Large (>1 m²)

Expand to show TLE details & history
Last TLE update: 13 hours ago

TLE from 13 hours ago
0 COSMOS 2092
1 20737U 90070C   26036.41586101  .00000014  00000-0  20532-4 0  9999
2 20737  82.5678  30.1659 0005570  74.6929  94.1646 12.63346204636719
Epoch: 2026-02-05T09:58Z
TLE epoch observation values (Epoch: 2026-02-05T09:58:50.391Z)
Latitude
10.93872°
Longitude
-76.55002°
Altitude
1,411.464 km
Speed
7.155 km/s
True Right ascension
13h 54m 54s
True Declination
10° 52' 49"
Sunlit
Object was in daylight at epoch
Visualization orbit readout
Latitude
Unknown
Longitude
Unknown
Altitude
Unknown
Speed
Unknown
Apparent Right ascension
Unknown
Apparent Declination
Unknown
Sunlit
N/A
Visualization observer readout
Local Sidereal Time
01:16:19
Azimuth
Unknown
Elevation
Unknown
Doppler factor
Unknown
Orbital elements
Apogee altitude
1,410.819 km
Perigee altitude
1,402.147 km
Semi-major axis
7,784.62 km
Eccentricity
0.00056
Inclination
82.5678°
RAAN
30.1659°
Arg. of periapsis
74.6929°
True anomaly
94.22826°
Mean anomaly
94.1646°
Eccentric anomaly
94.19643°
Mean motion
3.16 °/min
Orbital period
113.92 mins
BSTAR
0.000020532
Loading maneuver chart data...
Computing Atmospheric mass density...
Loading historical data...
Loading historical data...
Loading historical data...
Loading historical data...
Loading historical data...
Loading historical data...
Loading historical data...

Documentation

Showing up to 5 results
|